Location: *
(46.3500°N, 10.9000°E)
Time: 20:24:15
(UTC+00:00)

Vanguard 2 Rocket - Pass Details

Date: 22 April 2021
Orbit: 553 x 3326 km, 32.9° (Epoch: 06 May)

Event Time Altitude Azimuth Distance (km) Brightness Sun altitude
Rises 19:25:32 0° 276° (W) 7,183 12.7 -12.0°
Reaches altitude 10° 19:34:27 10° 256° (WSW) 5,756 11.6 -13.3°
Maximum altitude 19:40:59 13° 233° (SW) 5,014 10.9 -14.2°
Drops below altitude 10° 19:46:38 10° 209° (SSW) 4,807 10.5 -15.0°
Sets 19:52:40 0° 185° (S) 5,184 10.4 -15.8°
